Back to catalog

STARLINK-11467

AliveCommunicationsVLEO
NORAD 62068·PAYLOAD·🇺🇸 United States

Launched Nov 24, 2024 from Vandenberg Space Force Base

Loading…

Next Passes (next 24 hours)

TLE

FreshSource: CelesTrak SupGP

Epoch: Sep 14, 2026, 20:45 UTC

1 62068C 24217M   26257.86506944  .00040857  00000+0  33650-3 0  2572
2 62068  53.1576 218.5908 0001161  94.9427  25.0871 15.69692751    13

Track STARLINK-11467 in real time with AllMySat

Download on the App Store